[[{"header":{"parameterUnit":"m.s-1","parameterCategory":1,"la1":30.2991,"la2":30.254,"lo1":-89.0895,"lo2":-89.0444,"dy":0.0017,"dx":0.0017,"nx":28,"ny":28,"refTime":"2024-05-25T21:00:00:Z","depth":0,"parameterNumber":2,"parameterNumberName":"U-component_of_WINDS"},"data":[0,0,0,0,0,0,0,0,0,0,0,0,0,0,0,0,0,0,0,0,0,0,0,0,0,0,0,0,0,0,0,0,0,0,0,0,0,0,0,0,0,0,0,0,0,0,0,0,0,0,0,0,0,0,0,0,0,0,0.5432,0.5431,0,0.5378,0.5378,0.5377,0.5342,0.5342,0.5342,0.5342,0.5287,0.5286,0.5285,0,0,0,0,0,0,0,0,0,0,0,0,0,0.5503,0.5502,0.5432,0.5431,0.5431,0.5379,0.5378,0.5377,0.5342,0.5342,0.5342,0.5342,0.5287,0.5286,0.5284,0,0,0,0,0,0,0,0,0,0,0,0,0,0.5463,0.5502,0.5432,0.5407,0.5404,0.5379,0.5378,0.5377,0.5342,0.5342,0.5342,0.5341,0.5288,0.5286,0.5284,0.5279,0,0,0.5279,0.5278,0,0,0,0,0,0,0,0,0.5466,0.5461,0.5411,0.5409,0.5406,0.5367,0.5383,0.5344,0.5343,0.5366,0.5342,0.5341,0.5314,0.531,0.5301,0.5277,0.5274,0.5278,0.5277,0.5276,0.5276,0,0,0,0,0,0,0,0.5468,0.5463,0.5411,0.5411,0.5407,0.5398,0.5392,0.5375,0.5342,0.5364,0.5361,0.5355,0.5312,0.5302,0.5299,0.5274,0.5278,0.5277,0.5276,0.5275,0.5241,0.5241,0,0,0,0,0,0,0.5475,0.5465,0.5412,0.5409,0.5435,0.5397,0.539,0.538,0.5343,0.5337,0.5356,0.5354,0.5306,0.5301,0.5297,0.5287,0.5276,0.5275,0.5274,0.5241,0.5241,0.5241,0,0,0,0,0,0,0.5477,0.5471,0.5415,0.5436,0.5429,0.5396,0.5384,0.5379,0.5369,0.5336,0.533,0.5352,0.5305,0.53,0.5283,0.5285,0.5274,0.5272,0.524,0.5241,0.5241,0.5269,0,0,0,0,0,0,0.5479,0.5472,0.547,0.5437,0.5428,0.5403,0.5385,0.5378,0.5366,0.5363,0.5331,0.5325,0.5305,0.5286,0.5282,0.5282,0.5271,0.524,0.5241,0.5241,0.5268,0.527,0.5272,0,0,0,0,0,0.5482,0.548,0.547,0.5464,0.5425,0.5403,0.5398,0.5374,0.5366,0.5363,0.5342,0.5326,0.5286,0.5285,0.5279,0.5279,0.524,0.524,0.5241,0.5267,0.527,0.5272,0,0,0,0,0,0,0.5515,0.5475,0.5464,0.5451,0.5431,0.5397,0.5393,0.5378,0.5359,0.5357,0.5328,0.5321,0.5308,0.5292,0.5292,0.5271,0.5261,0.526,0.5282,0.5285,0.5287,0.5291,0.5269,0,0,0,0,0,0.5521,0.5506,0.5473,0.5465,0.5455,0.5426,0.5416,0.5399,0.5376,0.5367,0.5345,0.5323,0.5305,0.5294,0.5276,0.5265,0.5257,0.5262,0.5264,0.5266,0.5266,0.5257,0.5259,0.5243,0.5243,0.5243,0,0,0.5533,0.5509,0.5502,0.5471,0.5453,0.5438,0.5419,0.5405,0.5393,0.5365,0.5348,0.5331,0.5305,0.5291,0.5284,0.5277,0.5269,0.5267,0.5269,0.5267,0.5258,0.5259,0.5261,0.5243,0.5243,0.5243,0,0,0.5547,0.5528,0.5519,0.5501,0.5473,0.5454,0.5452,0.542,0.5407,0.539,0.5368,0.5353,0.5324,0.5305,0.5292,0.5298,0.5282,0.5293,0.5304,0.5296,0.5297,0.5298,0.5299,0.5299,0.5292,0.5293,0.5293,0,0.5565,0.5542,0.5516,0.5502,0.5489,0.5462,0.5452,0.5436,0.5404,0.5395,0.5389,0.5349,0.533,0.531,0.5312,0.5302,0.5298,0.5296,0.5299,0.53,0.53,0.5301,0.5301,0.5294,0.5294,0.5294,0.5293,0,0.5565,0.5549,0.5545,0.5514,0.55,0.5489,0.546,0.5449,0.5433,0.5414,0.5396,0.5371,0.5347,0.5341,0.5326,0.5319,0.5316,0.5305,0.5293,0.5304,0.5303,0.5303,0.5296,0.5295,0.5295,0.5295,0,0,0.5599,0.5553,0.5552,0.5537,0.5504,0.5491,0.5477,0.5453,0.5443,0.5422,0.5409,0.5384,0.5373,0.5358,0.534,0.5333,0.5337,0.5322,0.5321,0.5325,0.5326,0.5334,0.5335,0.5326,0.5326,0.5326,0.5328,0,0.5607,0.5581,0.5557,0.554,0.5524,0.5498,0.5486,0.5464,0.5446,0.5429,0.5409,0.539,0.5378,0.5368,0.536,0.5338,0.5337,0.5338,0.5313,0.5313,0.532,0.5335,0.5343,0.5346,0.5328,0.5328,0.5328,0,0.5613,0.5592,0.5573,0.554,0.5533,0.5522,0.5497,0.5482,0.5457,0.5443,0.5426,0.5407,0.539,0.5381,0.5357,0.5359,0.5347,0.5335,0.5334,0.533,0.532,0.533,0.5346,0.5347,0.5327,0.5327,0.5327,0,0.5638,0.5605,0.5589,0.5577,0.5539,0.5532,0.5515,0.5489,0.5476,0.5454,0.5444,0.5421,0.5408,0.539,0.5365,0.5361,0.5343,0.5332,0.5331,0.5332,0.5328,0.5329,0.5342,0.5323,0.5323,0.5323,0.5323,0,0.5649,0.5638,0.5599,0.5589,0.5576,0.5548,0.5535,0.5517,0.5493,0.5479,0.5455,0.5442,0.541,0.5392,0.5373,0.5355,0.535,0.5338,0.5333,0.534,0.5341,0.5331,0.533,0.5323,0.5323,0.5323,0.5323,0,0.5674,0.5648,0.5629,0.5593,0.5584,0.5576,0.5545,0.5534,0.5514,0.5496,0.549,0.5458,0.5436,0.5409,0.5379,0.5366,0.535,0.5342,0.5359,0.5355,0.5355,0.5355,0.5362,0.5361,0.5343,0.5344,0.5344,0,0.5683,0.5674,0.5637,0.5625,0.561,0.5591,0.5577,0.5549,0.5535,0.5504,0.5496,0.5473,0.5452,0.5418,0.5392,0.5369,0.536,0.5364,0.5356,0.5363,0.5359,0.5359,0.5357,0.5366,0.5366,0.5366,0.5367,0,0.57,0.5687,0.5667,0.5643,0.5626,0.5606,0.5584,0.5576,0.5543,0.5528,0.5505,0.5489,0.5458,0.5434,0.5407,0.539,0.5372,0.5369,0.5367,0.5374,0.5383,0.5377,0.5363,0.5369,0.5369,0.5369,0.5368,0.5368,0.5716,0.5706,0.5678,0.5657,0.5637,0.5617,0.5605,0.5582,0.5563,0.5535,0.5519,0.5497,0.547,0.5431,0.5414,0.5396,0.5389,0.5387,0.5387,0.5386,0.5388,0.5387,0.5391,0.5391,0.5391,0.539,0.539,0,0.5731,0.5711,0.5692,0.5662,0.5645,0.563,0.5604,0.5591,0.5571,0.5547,0.5527,0.55,0.5477,0.5449,0.5423,0.5414,0.5405,0.5408,0.5408,0.5404,0.5396,0.5399,0.5415,0.5415,0.5415,0.5415,0.5415,0.5415,0.5736,0.5718,0.5702,0.5673,0.5654,0.5631,0.5618,0.5599,0.558,0.555,0.5531,0.5512,0.5486,0.5459,0.5436,0.5428,0.542,0.5425,0.5415,0.5407,0.5405,0.5403,0.5406,0.5424,0.5424,0.5425,0.5425,0.5425]},{"header":{"parameterUnit":"m.s-1","parameterCategory":1,"la1":30.2991,"la2":30.254,"lo1":-89.0895,"lo2":-89.0444,"dy":0.0017,"dx":0.0017,"nx":28,"ny":28,"refTime":"2024-05-25T21:00:00:Z","depth":0,"parameterNumber":3,"parameterNumberName":"V-component_of_WINDS"},"data":[0,0,0,0,0,0,0,0,0,0,0,0,0,0,0,0,0,0,0,0,0,0,0,0,0,0,0,0,0,0,0,0,0,0,0,0,0,0,0,0,0,0,0,0,0,0,0,0,0,0,0,0,0,0,0,0,0,0,7.5903,7.5903,0,7.5956,7.5957,7.5957,7.59,7.5897,7.5895,7.5893,7.5945,7.5948,7.5951,0,0,0,0,0,0,0,0,0,0,0,0,0,7.5746,7.5749,7.5903,7.5903,7.5904,7.5956,7.5957,7.5957,7.59,7.5897,7.5895,7.5892,7.5943,7.5948,7.5952,0,0,0,0,0,0,0,0,0,0,0,0,0,7.5808,7.575,7.5903,7.5882,7.588,7.5956,7.5957,7.5958,7.5901,7.5897,7.5894,7.5891,7.5942,7.5947,7.5952,7.605,0,0,7.5968,7.597,0,0,0,0,0,0,0,0,7.5805,7.5814,7.5884,7.5883,7.5882,7.5918,7.592,7.5988,7.5901,7.5893,7.5893,7.5889,7.5938,7.5943,7.5961,7.6052,7.6055,7.5968,7.5971,7.5974,7.5975,0,0,0,0,0,0,0,7.5801,7.5811,7.5924,7.5885,7.5884,7.5868,7.5873,7.5933,7.5933,7.5893,7.5889,7.5896,7.5937,7.5956,7.5961,7.6055,7.5968,7.5973,7.5976,7.5978,7.6226,7.623,0,0,0,0,0,0,7.5799,7.5808,7.5922,7.5925,7.5835,7.5874,7.5879,7.591,7.5932,7.5933,7.5899,7.5894,7.5949,7.5955,7.5963,7.6076,7.5974,7.5978,7.5981,7.6223,7.6227,7.6231,0,0,0,0,0,0,7.5796,7.581,7.592,7.5866,7.5878,7.588,7.5914,7.5912,7.5931,7.5937,7.5936,7.5919,7.5946,7.5956,7.6028,7.6077,7.5981,7.5985,7.6219,7.6224,7.6229,7.6306,0,0,0,0,0,0,7.5792,7.5809,7.5848,7.5867,7.5882,7.5986,7.5917,7.5916,7.5941,7.5934,7.5955,7.5955,7.5944,7.6021,7.6033,7.6083,7.5989,7.6214,7.6221,7.6227,7.6299,7.6313,7.6325,0,0,0,0,0,7.5786,7.5867,7.585,7.5864,7.593,7.5989,7.5997,7.5984,7.5945,7.5982,7.5986,7.5955,7.607,7.6029,7.6042,7.6094,7.6211,7.6219,7.6227,7.6293,7.631,7.6325,0,0,0,0,0,0,7.5853,7.5869,7.585,7.594,7.5964,7.5979,7.6026,7.6003,7.6037,7.6029,7.601,7.6015,7.6092,7.61,7.6054,7.6188,7.6134,7.6145,7.6179,7.6196,7.6209,7.6204,7.5994,0,0,0,0,0,7.5878,7.5926,7.5937,7.6015,7.6028,7.6025,7.6051,7.6038,7.6061,7.607,7.6079,7.6102,7.6142,7.617,7.6208,7.63,7.6302,7.6342,7.6355,7.6366,7.6375,7.6421,7.6438,7.6257,7.6257,7.6257,0,0,7.5931,7.5946,7.5977,7.6029,7.6046,7.6094,7.6034,7.6088,7.6123,7.6078,7.6147,7.6154,7.6177,7.6259,7.6296,7.6269,7.6426,7.6376,7.6385,7.6388,7.6431,7.6448,7.6463,7.6262,7.6261,7.626,0,0,7.605,7.6068,7.6133,7.6151,7.6177,7.6174,7.619,7.6209,7.6211,7.628,7.6247,7.6287,7.6359,7.6376,7.6395,7.6519,7.649,7.6532,7.66,7.6645,7.6659,7.6671,7.6713,7.6728,7.6541,7.6541,7.6541,0,7.6112,7.6184,7.6169,7.6225,7.6248,7.621,7.6275,7.6292,7.6329,7.6345,7.6315,7.6402,7.6416,7.6499,7.6529,7.6546,7.6562,7.6528,7.6658,7.6671,7.6682,7.6721,7.6737,7.6546,7.6545,7.6545,7.6544,0,7.6257,7.6307,7.6357,7.6393,7.6422,7.6482,7.6474,7.6504,7.6489,7.6489,7.6557,7.6572,7.6611,7.6631,7.6616,7.6712,7.6694,7.6662,7.6606,7.6704,7.6741,7.6756,7.6553,7.6551,7.655,7.6548,0,0,7.642,7.6447,7.6465,7.648,7.6505,7.6542,7.66,7.6638,7.6663,7.669,7.6735,7.6796,7.6766,7.6786,7.6774,7.6813,7.6907,7.6776,7.6776,7.6797,7.7009,7.7032,7.705,7.6889,7.6892,7.6894,7.7006,0,7.6538,7.6638,7.6625,7.672,7.6765,7.6729,7.6778,7.6797,7.6799,7.6835,7.6836,7.6878,7.6836,7.6848,7.6886,7.6888,7.6949,7.688,7.6929,7.6931,7.6922,7.7069,7.7094,7.7199,7.7021,7.7023,7.7025,0,7.669,7.6721,7.682,7.6836,7.6854,7.6899,7.6931,7.6968,7.6988,7.6986,7.7008,7.6988,7.7042,7.6988,7.7062,7.7015,7.7034,7.7038,7.7041,7.7044,7.6983,7.7073,7.7233,7.7248,7.7048,7.7046,7.7044,0,7.6795,7.6863,7.693,7.6944,7.6964,7.6996,7.7006,7.7023,7.7046,7.7075,7.7089,7.7124,7.7143,7.7169,7.7157,7.7119,7.7232,7.7177,7.723,7.723,7.7254,7.7252,7.7416,7.7271,7.727,7.727,7.727,0,7.6927,7.6989,7.6977,7.7018,7.7085,7.7069,7.7135,7.714,7.7156,7.7196,7.7167,7.7205,7.7188,7.7225,7.7216,7.7276,7.7286,7.7284,7.728,7.7285,7.7285,7.7296,7.7287,7.7274,7.7273,7.7272,7.7272,0,7.7056,7.7051,7.7122,7.7135,7.714,7.7188,7.7198,7.7236,7.7234,7.7285,7.7296,7.7293,7.7334,7.7325,7.7371,7.7364,7.744,7.7428,7.7433,7.7429,7.7481,7.7476,7.7656,7.7678,7.7521,7.7522,7.7523,0,7.714,7.7186,7.7204,7.7229,7.7241,7.7282,7.7305,7.729,7.7315,7.734,7.7374,7.7413,7.7442,7.7509,7.751,7.7544,7.7531,7.7592,7.7536,7.7539,7.7529,7.7526,7.7529,7.7603,7.7605,7.7606,7.7608,0,7.7288,7.7282,7.7317,7.7351,7.738,7.7405,7.7428,7.745,7.7437,7.7466,7.7508,7.7531,7.7576,7.7614,7.7644,7.7652,7.7627,7.7625,7.7639,7.7643,7.7643,7.7641,7.7461,7.7621,7.762,7.7619,7.7618,7.7617,7.7395,7.7433,7.7451,7.749,7.7505,7.7527,7.7562,7.7564,7.7599,7.7634,7.7624,7.767,7.7687,7.7725,7.7737,7.7772,7.7749,7.7769,7.7774,7.7778,7.7784,7.7639,7.7778,7.7778,7.7777,7.7777,7.7777,0,7.7539,7.7548,7.7584,7.7616,7.7647,7.7621,7.7644,7.7671,7.7712,7.773,7.776,7.7806,7.7842,7.7845,7.7878,7.7905,7.7894,7.7914,7.7911,7.7913,7.7804,7.7788,7.7923,7.7923,7.7922,7.7922,7.7922,7.7922,7.7617,7.7679,7.7676,7.7744,7.7753,7.7798,7.7813,7.7832,7.7846,7.7899,7.7929,7.7931,7.7942,7.7975,7.8006,7.8006,7.8019,7.8043,7.8038,7.7935,7.7921,7.7907,7.7891,7.8046,7.8046,7.8144,7.8144,7.8145]}]]